Whidbey Island, WA
on Sunday, November 4, 2012

Sunday
Previous Day Next Day
Daily Summary
 ActualAverageRecord
Temperature
Mean Temperature °F °F  
Max Temperature 63°F 51°F 63°F (2012)
Min Temperature 51°F 38°F 23°F (2003)
Degree Days
Heating Degree Days 8    
Growing Degree Days6 (Base °F )  
Moisture
Dew Point 52°F   
Average Humidity 88    
Maximum Humidity 94    
Minimum Humidity 77    
Precipitation
Precipitation 0.19 in in in ()
Wind
Wind Speed 10 mph   
Max Wind Speed 24 mph   
Max Gust Speed 36 mph   
Visibility 8 miles   
Events Rain   
Averages and records for this station are not official NWS values.
Key: T is trace of precipitation, MM is missing value
Source: NWS Daily Summary
Seasonal Weather Averages
Time(PST)TemperatureDew PointHumidity Pressure Visibility Wind DirectionWind SpeedGust SpeedPrecipitationEvents Conditions
12:24 AM 51.8°F 50.0°F 94% 30.17 in 10.0 miles East 4.6 mph - 0.00 in   Overcast
12:56 AM 52.0°F 50.0°F 93% 30.18 in 8.0 miles ESE 6.9 mph - 0.00 in   Overcast
1:14 AM 53.6°F 51.8°F 94% 30.16 in 2.0 miles East 5.8 mph - 0.00 in   Light Drizzle
1:37 AM 53.6°F 51.8°F 94% 30.16 in 2.0 miles East 4.6 mph - 0.00 in   Overcast
1:56 AM 54.0°F 52.0°F 93% 30.18 in 2.0 miles ESE 8.1 mph - 0.00 in   Overcast
1:07 AM 53.6°F 51.8°F 94% 30.16 in 2.0 miles ESE 9.2 mph - N/A   Overcast
1:33 AM 55.4°F 51.8°F 88% 30.18 in 2.0 miles ESE 6.9 mph - 0.00 in Rain Light Rain
1:56 AM 54.0°F 52.0°F 93% 30.19 in 2.0 miles East 8.1 mph - 0.01 in Rain Light Rain
2:05 AM 53.6°F 51.8°F 94% 30.17 in 2.0 miles East 9.2 mph - 0.00 in   Overcast
2:18 AM 53.6°F 51.8°F 94% 30.18 in 10.0 miles East 9.2 mph - 0.00 in   Overcast
2:56 AM 54.0°F 51.1°F 90% 30.20 in 8.0 miles East 10.4 mph - 0.00 in Rain Light Rain
3:29 AM 53.6°F 51.8°F 94% 30.17 in 8.0 miles ESE 10.4 mph - 0.00 in Rain Light Rain
3:56 AM 54.0°F 51.1°F 90% 30.18 in 8.0 miles East 10.4 mph - 0.00 in Rain Light Rain
4:11 AM 53.6°F 51.8°F 94% 30.18 in 10.0 miles ESE 9.2 mph - 0.00 in   Overcast
4:56 AM 54.0°F 51.1°F 90% 30.19 in 10.0 miles ESE 10.4 mph - 0.00 in   Overcast
5:56 AM 55.0°F 51.1°F 86% 30.18 in 10.0 miles East 9.2 mph - N/A   Overcast
6:56 AM 55.9°F 52.0°F 87% 30.17 in 10.0 miles ESE 12.7 mph - N/A   Overcast
7:22 AM 55.4°F 51.8°F 88% 30.16 in 10.0 miles ESE 13.8 mph 20.7 mph N/A   Overcast
7:56 AM 57.0°F 53.1°F 87% 30.18 in 10.0 miles East 11.5 mph - N/A   Overcast
8:56 AM 57.9°F 53.1°F 84% 30.17 in 10.0 miles ESE 17.3 mph 25.3 mph N/A   Overcast
9:56 AM 60.1°F 54.0°F 80% 30.18 in 10.0 miles SE 13.8 mph 23.0 mph N/A   Overcast
10:25 AM 60.8°F 53.6°F 77% 30.17 in 10.0 miles SSE 16.1 mph 27.6 mph N/A   Overcast
10:56 AM 60.1°F 54.0°F 80% 30.17 in 10.0 miles SE 18.4 mph 25.3 mph N/A   Overcast
11:56 AM 60.1°F 55.0°F 83% 30.16 in 10.0 miles SSE 24.2 mph 28.8 mph N/A   Overcast
12:56 PM 61.0°F 55.0°F 81% 30.15 in 10.0 miles SE 19.6 mph 28.8 mph N/A   Overcast
1:56 PM 62.1°F 55.0°F 78% 30.16 in 10.0 miles SSE 24.2 mph 32.2 mph N/A   Overcast
2:56 PM 62.1°F 55.0°F 78% 30.13 in 10.0 miles SE 21.9 mph 28.8 mph N/A   Overcast
3:56 PM 62.1°F 55.9°F 80% 30.12 in 10.0 miles SSE 24.2 mph 35.7 mph N/A   Overcast
4:56 PM 61.0°F 55.9°F 83% 30.17 in 10.0 miles SE 24.2 mph 34.5 mph N/A   Overcast
5:56 PM 57.9°F 55.0°F 90% 30.20 in 8.0 miles SW 12.7 mph 23.0 mph 0.01 in Rain Light Rain
6:14 PM 51.8°F 48.2°F 88% 30.21 in 4.0 miles WSW 10.4 mph - 0.03 in Rain Rain
6:56 PM 53.1°F 50.0°F 89% 30.21 in 9.0 miles ESE 3.5 mph - 0.09 in Rain Light Rain
7:56 PM 55.0°F 52.0°F 89% 30.21 in 7.0 miles East 9.2 mph - 0.03 in Rain Light Rain
8:34 PM 53.6°F 51.8°F 94% 30.23 in 3.0 miles NW 4.6 mph - 0.03 in Rain Light Rain
8:56 PM 54.0°F 52.0°F 93% 30.24 in 3.0 miles NW 5.8 mph - 0.05 in Rain Light Rain
9:20 PM 55.4°F 51.8°F 88% 30.22 in 9.0 miles NW 6.9 mph - 0.00 in Rain Light Rain
9:35 PM 55.4°F 51.8°F 88% 30.25 in 10.0 miles NW 6.9 mph - 0.00 in Rain Light Rain
9:56 PM 54.0°F 52.0°F 93% 30.26 in 10.0 miles West 3.5 mph - 0.00 in Rain Light Rain
10:17 PM 53.6°F 51.8°F 94% 30.24 in 10.0 miles WSW 4.6 mph - 0.00 in   Overcast
10:56 PM 53.1°F 50.0°F 89% 30.30 in 10.0 miles WSW 8.1 mph - 0.00 in   Overcast
Moon Phase
Nov. 04 Nov. 06 Nov. 13 Nov. 20 Nov. 28
Sunrise:07:01 AM (PST) Moon Rise:09:25 PM (PST)11/4
Sunset:04:45 PM (PST) Moon Set:11:54 AM (PST)11/4

Copyright © 2014 The Weather Underground, Inc.